[[{"header":{"parameterUnit":"m.s-1","parameterCategory":1,"la1":30.2991,"la2":30.254,"lo1":-89.0895,"lo2":-89.0444,"dy":0.0017,"dx":0.0017,"nx":28,"ny":28,"refTime":"2024-05-02T09:00:00:Z","depth":0,"parameterNumber":2,"parameterNumberName":"U-component_of_WINDS"},"data":[0,0,0,0,0,0,0,0,0,0,0,0,0,0,0,0,0,0,0,0,0,0,0,0,0,0,0,0,0,0,0,0,0,0,0,0,0,0,0,0,0,0,0,0,0,0,0,0,0,0,0,0,0,0,0,0,0,0,-3.4431,-3.4431,0,-3.4487,-3.4487,-3.4488,-3.4472,-3.4471,-3.4469,-3.4468,-3.4524,-3.4526,-3.4529,0,0,0,0,0,0,0,0,0,0,0,0,0,-3.4309,-3.4312,-3.4431,-3.4431,-3.4432,-3.4486,-3.4487,-3.4488,-3.4472,-3.447,-3.4469,-3.4468,-3.4523,-3.4526,-3.4529,0,0,0,0,0,0,0,0,0,0,0,0,0,-3.4363,-3.4312,-3.4431,-3.4431,-3.4431,-3.4486,-3.4487,-3.4488,-3.4472,-3.447,-3.4469,-3.4467,-3.4522,-3.4526,-3.4529,-3.4587,0,0,-3.4541,-3.4543,0,0,0,0,0,0,0,0,-3.436,-3.4368,-3.443,-3.4431,-3.4431,-3.447,-3.4465,-3.4521,-3.4473,-3.4457,-3.4468,-3.4466,-3.4507,-3.4512,-3.4526,-3.459,-3.4592,-3.4541,-3.4544,-3.4545,-3.4546,0,0,0,0,0,0,0,-3.4356,-3.4365,-3.4453,-3.4431,-3.4432,-3.4428,-3.4433,-3.4475,-3.4491,-3.4458,-3.4457,-3.4464,-3.4507,-3.4523,-3.4527,-3.4593,-3.4541,-3.4545,-3.4547,-3.4548,-3.4707,-3.4709,0,0,0,0,0,0,-3.4352,-3.4362,-3.4451,-3.4454,-3.4391,-3.4431,-3.4438,-3.446,-3.449,-3.4493,-3.4465,-3.4463,-3.4517,-3.4523,-3.4529,-3.4598,-3.4545,-3.4549,-3.4551,-3.4705,-3.4707,-3.4709,0,0,0,0,0,0,-3.435,-3.436,-3.4449,-3.4408,-3.4419,-3.4435,-3.446,-3.4462,-3.4477,-3.4496,-3.4498,-3.4478,-3.4516,-3.4524,-3.4573,-3.46,-3.455,-3.4554,-3.4703,-3.4706,-3.4708,-3.4738,0,0,0,0,0,0,-3.4346,-3.436,-3.4382,-3.4409,-3.4421,-3.4492,-3.4462,-3.4464,-3.4484,-3.4481,-3.4509,-3.4511,-3.4515,-3.4567,-3.4577,-3.4605,-3.4557,-3.47,-3.4704,-3.4707,-3.4734,-3.4741,-3.4747,0,0,0,0,0,-3.4342,-3.4387,-3.4383,-3.4394,-3.4449,-3.4493,-3.45,-3.4504,-3.4486,-3.4508,-3.4521,-3.4511,-3.4596,-3.4573,-3.4583,-3.4612,-3.4698,-3.4703,-3.4707,-3.4731,-3.474,-3.4747,0,0,0,0,0,0,-3.4362,-3.4391,-3.4386,-3.4442,-3.4465,-3.449,-3.4518,-3.4513,-3.4542,-3.4538,-3.4541,-3.4548,-3.4598,-3.461,-3.4583,-3.467,-3.4645,-3.4651,-3.466,-3.4668,-3.4674,-3.4669,-3.456,0,0,0,0,0,-3.4373,-3.4407,-3.443,-3.4477,-3.4489,-3.4502,-3.4521,-3.4522,-3.4547,-3.4556,-3.4572,-3.4596,-3.4628,-3.4649,-3.468,-3.4737,-3.4742,-3.4762,-3.4769,-3.4774,-3.4779,-3.481,-3.4819,-3.4723,-3.4723,-3.4723,0,0,-3.4396,-3.4416,-3.4437,-3.4481,-3.45,-3.4534,-3.451,-3.4547,-3.4573,-3.4562,-3.4609,-3.4622,-3.4648,-3.4702,-3.4726,-3.4713,-3.4807,-3.478,-3.4783,-3.4786,-3.4815,-3.4824,-3.4832,-3.4726,-3.4726,-3.4725,0,0,-3.4455,-3.4474,-3.4514,-3.4534,-3.4562,-3.4571,-3.4581,-3.4608,-3.4616,-3.4663,-3.4656,-3.4686,-3.4742,-3.4761,-3.4778,-3.4846,-3.4838,-3.4856,-3.4889,-3.4919,-3.4926,-3.4933,-3.4956,-3.4965,-3.4862,-3.4862,-3.4862,0,-3.4479,-3.4531,-3.4536,-3.4574,-3.4594,-3.4587,-3.4628,-3.4646,-3.4683,-3.4697,-3.4683,-3.4753,-3.4771,-3.4828,-3.4845,-3.486,-3.487,-3.4852,-3.4925,-3.4932,-3.4938,-3.496,-3.4969,-3.4864,-3.4863,-3.4863,-3.4863,0,-3.4559,-3.4595,-3.4625,-3.4661,-3.4685,-3.4724,-3.4735,-3.4758,-3.4758,-3.4768,-3.4817,-3.4838,-3.4873,-3.4887,-3.4887,-3.4945,-3.4936,-3.4924,-3.4898,-3.4949,-3.497,-3.4978,-3.4866,-3.4866,-3.4865,-3.4865,0,0,-3.4629,-3.467,-3.468,-3.4697,-3.4729,-3.4757,-3.4796,-3.4831,-3.485,-3.4877,-3.4909,-3.4958,-3.4947,-3.4966,-3.4969,-3.4995,-3.5047,-3.498,-3.498,-3.499,-3.5111,-3.5119,-3.5129,-3.5043,-3.5044,-3.5046,-3.5109,0,-3.469,-3.4759,-3.4766,-3.4828,-3.4861,-3.4856,-3.489,-3.4914,-3.4925,-3.4954,-3.4967,-3.5,-3.4984,-3.4995,-3.5022,-3.5035,-3.5071,-3.5031,-3.5072,-3.5073,-3.5063,-3.514,-3.5148,-3.5206,-3.5117,-3.5118,-3.5119,0,-3.4769,-3.4798,-3.4864,-3.4891,-3.4906,-3.4936,-3.4969,-3.4998,-3.5024,-3.5031,-3.5053,-3.5053,-3.5093,-3.5068,-3.5123,-3.5096,-3.5113,-3.5123,-3.5125,-3.5127,-3.5098,-3.5143,-3.5225,-3.5233,-3.5132,-3.5131,-3.513,0,-3.4812,-3.4868,-3.4915,-3.4929,-3.4963,-3.4985,-3.5,-3.5025,-3.5046,-3.5075,-3.5088,-3.5121,-3.5139,-3.5165,-3.5173,-3.5154,-3.5228,-3.5203,-3.5233,-3.5233,-3.5247,-3.5246,-3.5332,-3.5262,-3.5262,-3.5261,-3.5261,0,-3.4877,-3.4918,-3.4935,-3.4963,-3.5008,-3.5016,-3.506,-3.5074,-3.5096,-3.5127,-3.5125,-3.5154,-3.5164,-3.5195,-3.5202,-3.5246,-3.5254,-3.526,-3.5261,-3.5259,-3.5258,-3.5269,-3.5264,-3.5264,-3.5263,-3.5263,-3.5262,0,-3.4932,-3.4946,-3.4996,-3.5024,-3.5033,-3.5064,-3.5088,-3.5116,-3.5127,-3.5166,-3.5176,-3.5194,-3.523,-3.5241,-3.5285,-3.5289,-3.5341,-3.5339,-3.5332,-3.5331,-3.536,-3.5357,-3.5455,-3.5468,-3.5391,-3.5391,-3.5392,0,-3.4972,-3.5003,-3.5036,-3.5056,-3.5072,-3.5106,-3.5127,-3.5137,-3.5159,-3.5192,-3.5216,-3.5252,-3.5281,-3.5339,-3.5355,-3.5388,-3.5386,-3.5419,-3.5391,-3.5388,-3.5385,-3.5383,-3.5385,-3.5423,-3.5424,-3.5424,-3.5425,0,-3.5042,-3.5047,-3.5078,-3.5112,-3.5138,-3.5165,-3.5191,-3.5208,-3.5221,-3.5247,-3.5284,-3.5307,-3.5352,-3.5387,-3.5421,-3.5436,-3.5433,-3.5434,-3.5442,-3.544,-3.5434,-3.5436,-3.5344,-3.5431,-3.543,-3.543,-3.543,-3.5429,-3.509,-3.5117,-3.5144,-3.5179,-3.52,-3.5224,-3.5251,-3.5267,-3.5298,-3.5335,-3.5339,-3.5379,-3.5406,-3.5451,-3.5469,-3.55,-3.549,-3.5503,-3.5506,-3.5508,-3.551,-3.543,-3.5506,-3.5506,-3.5506,-3.5506,-3.5506,0,-3.5158,-3.5175,-3.5208,-3.5244,-3.5272,-3.5268,-3.5296,-3.5319,-3.5355,-3.538,-3.5409,-3.5452,-3.5487,-3.5507,-3.5541,-3.5563,-3.5562,-3.5571,-3.5569,-3.5572,-3.5517,-3.5505,-3.5571,-3.5571,-3.5571,-3.5571,-3.5571,-3.5571,-3.5196,-3.5242,-3.5251,-3.5306,-3.5324,-3.5363,-3.538,-3.5402,-3.5423,-3.5471,-3.55,-3.5513,-3.5536,-3.5573,-3.5604,-3.5609,-3.5622,-3.5632,-3.5636,-3.5583,-3.5576,-3.557,-3.5559,-3.5635,-3.5635,-3.5688,-3.5689,-3.5689]},{"header":{"parameterUnit":"m.s-1","parameterCategory":1,"la1":30.2991,"la2":30.254,"lo1":-89.0895,"lo2":-89.0444,"dy":0.0017,"dx":0.0017,"nx":28,"ny":28,"refTime":"2024-05-02T09:00:00:Z","depth":0,"parameterNumber":3,"parameterNumberName":"V-component_of_WINDS"},"data":[0,0,0,0,0,0,0,0,0,0,0,0,0,0,0,0,0,0,0,0,0,0,0,0,0,0,0,0,0,0,0,0,0,0,0,0,0,0,0,0,0,0,0,0,0,0,0,0,0,0,0,0,0,0,0,0,0,0,4.0057,4.0057,0,4.0048,4.0048,4.0048,3.999,3.9989,3.9987,3.9986,3.9977,3.9978,3.9979,0,0,0,0,0,0,0,0,0,0,0,0,0,4.0025,4.0026,4.0057,4.0057,4.0057,4.0048,4.0048,4.0048,3.999,3.9989,3.9987,3.9985,3.9977,3.9978,3.9979,0,0,0,0,0,0,0,0,0,0,0,0,0,4.003,4.0026,4.0057,4.0027,4.0024,4.0048,4.0048,4.0048,3.9991,3.9989,3.9986,3.9984,3.9976,3.9978,3.9979,4.0032,0,0,3.9984,3.9985,0,0,0,0,0,0,0,0,4.003,4.0031,4.0032,4.0029,4.0026,4.0018,4.0033,4.0043,3.9991,4.0003,3.9986,3.9983,3.9992,3.9993,3.9996,4.0031,4.0031,3.9985,3.9985,3.9986,3.9987,0,0,0,0,0,0,0,4.0029,4.0031,4.0054,4.0032,4.0028,4.0014,4.0013,4.0035,4.001,4.0002,3.9998,3.9998,3.999,3.9994,3.9995,4.0031,3.9984,3.9986,3.9987,3.9988,4.0111,4.0113,0,0,0,0,0,0,4.0033,4.0031,4.0054,4.0053,4.0023,4.0017,4.0015,4.0023,4.0009,4.0005,4.0,3.9995,3.9992,3.9993,3.9994,4.0056,3.9986,3.9988,3.9989,4.0109,4.0111,4.0114,0,0,0,0,0,0,4.0033,4.0036,4.0054,4.0041,4.0042,4.0019,4.0029,4.0024,4.0027,4.0007,4.0003,4.0008,3.9991,3.9992,4.0023,4.0055,3.9988,3.999,4.0106,4.0109,4.0113,4.0179,0,0,0,0,0,0,4.0032,4.0036,4.0055,4.0042,4.0043,4.0083,4.0031,4.0025,4.003,4.0024,4.0014,4.001,3.9989,4.0021,4.0025,4.0056,3.9991,4.0103,4.0107,4.0111,4.0174,4.0184,4.0193,0,0,0,0,0,4.0031,4.0074,4.0056,4.0059,4.0067,4.0085,4.0086,4.0061,4.0033,4.0053,4.004,4.0011,4.0051,4.0025,4.0029,4.006,4.0101,4.0106,4.0111,4.0169,4.0182,4.0193,0,0,0,0,0,0,4.0091,4.0071,4.0052,4.0092,4.0091,4.0075,4.0099,4.0075,4.0081,4.0075,4.0044,4.0042,4.0078,4.0072,4.0044,4.0111,4.0071,4.0077,4.0114,4.0126,4.0135,4.0136,3.9993,0,0,0,0,0,4.0109,4.0125,4.0107,4.0144,4.0144,4.0122,4.0129,4.011,4.0107,4.0106,4.0096,4.0095,4.0107,4.0116,4.0126,4.0172,4.017,4.0196,4.0206,4.0214,4.022,4.0245,4.0257,4.0131,4.0131,4.0131,0,0,4.0146,4.0137,4.0149,4.0156,4.0153,4.0171,4.0122,4.0142,4.0156,4.0109,4.0138,4.0131,4.0128,4.0167,4.0184,4.0163,4.0254,4.022,4.0227,4.0228,4.0251,4.0263,4.0274,4.0134,4.0134,4.0133,0,0,4.0222,4.0217,4.0248,4.0246,4.0242,4.0227,4.0235,4.0223,4.0217,4.0246,4.0212,4.0227,4.0249,4.0248,4.0251,4.0329,4.0303,4.0333,4.0384,4.0409,4.0418,4.0427,4.0456,4.0466,4.0339,4.0339,4.0339,0,4.0269,4.0294,4.0267,4.029,4.0295,4.0254,4.0286,4.0285,4.0285,4.0289,4.0266,4.0293,4.0288,4.0327,4.0346,4.0349,4.0358,4.0334,4.0419,4.0428,4.0435,4.0462,4.0473,4.0343,4.0343,4.0342,4.0342,0,4.0352,4.037,4.0396,4.0397,4.0404,4.0431,4.0409,4.0419,4.04,4.0388,4.0419,4.0411,4.042,4.0428,4.0409,4.0465,4.0452,4.0425,4.0384,4.0452,4.0477,4.0487,4.0348,4.0347,4.0346,4.0345,0,0,4.0465,4.0452,4.0462,4.0463,4.0456,4.047,4.0496,4.0504,4.0515,4.0516,4.0538,4.0558,4.0533,4.0536,4.0516,4.0538,4.0602,4.0508,4.0508,4.0527,4.0665,4.0686,4.0698,4.0585,4.0587,4.0588,4.0665,0,4.0539,4.0583,4.056,4.0607,4.0624,4.0587,4.0609,4.0608,4.0598,4.0611,4.0599,4.0615,4.058,4.0582,4.0602,4.059,4.063,4.0584,4.0605,4.0606,4.0607,4.0711,4.0733,4.0806,4.0675,4.0676,4.0677,0,4.0631,4.0638,4.0687,4.0678,4.0684,4.0705,4.0712,4.0725,4.0723,4.0714,4.0719,4.0695,4.072,4.068,4.0715,4.0685,4.0692,4.0688,4.069,4.0691,4.0646,4.0716,4.0829,4.084,4.0692,4.0691,4.069,0,4.0711,4.0731,4.0763,4.0765,4.0755,4.0771,4.0768,4.0764,4.0771,4.0777,4.0782,4.0791,4.0796,4.0804,4.0783,4.0755,4.0821,4.0779,4.0815,4.0816,4.0831,4.083,4.0947,4.0835,4.0835,4.0834,4.0834,0,4.0796,4.0828,4.0799,4.0819,4.0853,4.0827,4.0862,4.0854,4.0852,4.087,4.0838,4.0856,4.0827,4.0842,4.0826,4.0858,4.086,4.0854,4.085,4.0858,4.0858,4.0862,4.0857,4.0837,4.0837,4.0836,4.0836,0,4.089,4.0872,4.0905,4.0894,4.0892,4.0918,4.0908,4.0927,4.0914,4.0938,4.0942,4.0923,4.0939,4.0919,4.0934,4.0923,4.0967,4.0954,4.0968,4.0964,4.1002,4.0999,4.1126,4.1142,4.1019,4.102,4.1021,0,4.0946,4.097,4.0962,4.0972,4.0971,4.0987,4.0995,4.097,4.0979,4.098,4.0998,4.1012,4.1021,4.1049,4.1037,4.1048,4.1036,4.1079,4.1037,4.1045,4.1037,4.1037,4.1039,4.1088,4.109,4.1091,4.1092,0,4.1048,4.1038,4.105,4.106,4.107,4.1076,4.108,4.109,4.1064,4.1076,4.1093,4.11,4.1115,4.113,4.1138,4.1134,4.111,4.1105,4.1114,4.1123,4.113,4.1128,4.0992,4.1103,4.1102,4.1101,4.11,4.11,4.1125,4.1145,4.1143,4.1158,4.1158,4.1163,4.118,4.117,4.1184,4.1194,4.1179,4.12,4.1198,4.1206,4.1206,4.1223,4.1204,4.1217,4.122,4.1224,4.123,4.1127,4.1224,4.1223,4.1223,4.1223,4.1223,0,4.1226,4.1224,4.1238,4.1244,4.1256,4.1232,4.1235,4.1247,4.1266,4.1267,4.1277,4.1297,4.1311,4.13,4.1312,4.1327,4.1316,4.1331,4.133,4.133,4.1246,4.1237,4.134,4.134,4.134,4.134,4.134,4.134,4.128,4.1313,4.1303,4.1336,4.1333,4.1353,4.1357,4.1362,4.1363,4.1386,4.1398,4.1391,4.1387,4.1398,4.1411,4.1407,4.1413,4.1433,4.1425,4.1347,4.1336,4.1325,4.1316,4.1434,4.1434,4.1508,4.1508,4.1509]}]]